TRI1030 YGFN-YCFS

Flight info

Callsign TRI1030
Flight time 0h 14m
Altitude 5000
Route GFN DCT CFS
Aircraft AT46/M-SDFGIRY/S

Departure

Time 2026-04-12 12:03
Airport Clarence Valley Regional Airport (YGFN)

Arrival

Time 2026-04-12 12:17
Airport Coffs Harbour Airport (YCFS)
Time Latitude Longitude Altitude Speed Heading
2026-04-12 11:50 -29.75950 153.02917 110 ft 0 kts 32°
2026-04-12 11:56 -29.75945 153.02925 108 ft 1 kts 69°
2026-04-12 11:56 -29.75947 153.02930 108 ft 1 kts 123°
2026-04-12 11:57 -29.75948 153.02931 108 ft 0 kts 139°
2026-04-12 11:57 -29.75950 153.02932 108 ft 1 kts 140°
2026-04-12 11:57 -29.75960 153.02953 109 ft 5 kts 108°
2026-04-12 11:58 -29.75969 153.03005 110 ft 8 kts 95°
2026-04-12 11:58 -29.75950 153.03069 106 ft 10 kts 30°
2026-04-12 11:58 -29.75875 153.03081 105 ft 12 kts
2026-04-12 11:58 -29.75789 153.03090 103 ft 13 kts
2026-04-12 11:59 -29.75699 153.03099 101 ft 13 kts
2026-04-12 11:59 -29.75605 153.03109 96 ft 14 kts
2026-04-12 11:59 -29.75509 153.03119 93 ft 14 kts
2026-04-12 11:59 -29.75419 153.03129 93 ft 14 kts
2026-04-12 12:00 -29.75325 153.03139 91 ft 14 kts
2026-04-12 12:00 -29.75226 153.03150 84 ft 14 kts
2026-04-12 12:00 -29.75130 153.03160 72 ft 10 kts
2026-04-12 12:00 -29.75106 153.03163 78 ft 8 kts
2026-04-12 12:01 -29.75015 153.03172 76 ft 15 kts
2026-04-12 12:01 -29.74915 153.03183 72 ft 13 kts
2026-04-12 12:01 -29.74818 153.03193 69 ft 15 kts
2026-04-12 12:01 -29.74737 153.03212 70 ft 12 kts
2026-04-12 12:02 -29.74720 153.03199 70 ft 1 kts 258°
2026-04-12 12:02 -29.74723 153.03194 68 ft 1 kts 217°
2026-04-12 12:02 -29.74738 153.03194 67 ft 4 kts 172°
2026-04-12 12:02 -29.74762 153.03197 70 ft 1 kts 183°
2026-04-12 12:03 -29.74765 153.03197 71 ft 2 kts 185°
2026-04-12 12:03 -29.75051 153.03169 80 ft 87 kts 183°
2026-04-12 12:03 -29.75855 153.03122 369 ft 127 kts 179°
2026-04-12 12:03 -29.76735 153.03277 1063 ft 128 kts 180°
2026-04-12 12:04 -29.77618 153.03139 1754 ft 127 kts 192°
2026-04-12 12:04 -29.78541 153.03114 2216 ft 145 kts 176°
2026-04-12 12:04 -29.79615 153.03281 2649 ft 163 kts 174°
2026-04-12 12:04 -29.80740 153.03478 3348 ft 163 kts 173°
2026-04-12 12:05 -29.81860 153.03688 4053 ft 163 kts 172°
2026-04-12 12:05 -29.82975 153.03907 4759 ft 162 kts 172°
2026-04-12 12:05 -29.84153 153.04124 4995 ft 190 kts 173°
2026-04-12 12:05 -29.85569 153.04367 4998 ft 219 kts 172°
2026-04-12 12:06 -29.87084 153.04878 4995 ft 238 kts 150°
2026-04-12 12:06 -29.88383 153.06108 4989 ft 247 kts 141°
2026-04-12 12:06 -29.89717 153.07411 4985 ft 254 kts 142°
2026-04-12 12:06 -29.91142 153.08647 4982 ft 258 kts 147°
2026-04-12 12:07 -29.92638 153.09769 4979 ft 254 kts 150°
2026-04-12 12:07 -29.94156 153.10848 4979 ft 258 kts 150°
2026-04-12 12:07 -29.95693 153.11941 4977 ft 260 kts 150°
2026-04-12 12:07 -29.97220 153.13037 4979 ft 257 kts 149°
2026-04-12 12:08 -29.98186 153.13744 4984 ft 256 kts 149°
2026-04-12 12:08 -30.00184 153.15223 4980 ft 254 kts 149°
2026-04-12 12:08 -30.01648 153.16320 4982 ft 253 kts 149°
2026-04-12 12:08 -30.03133 153.17420 4978 ft 253 kts 149°
2026-04-12 12:09 -30.04597 153.18498 4982 ft 246 kts 149°
2026-04-12 12:09 -30.06026 153.19550 4978 ft 241 kts 150°
2026-04-12 12:09 -30.06962 153.20238 4979 ft 239 kts 150°
2026-04-12 12:09 -30.08827 153.21608 4977 ft 234 kts 150°
2026-04-12 12:10 -30.09730 153.22275 4974 ft 231 kts 150°
2026-04-12 12:10 -30.11081 153.23270 4974 ft 229 kts 150°
2026-04-12 12:10 -30.12399 153.24244 4972 ft 221 kts 150°
2026-04-12 12:10 -30.13705 153.25209 4660 ft 226 kts 150°
2026-04-12 12:11 -30.14960 153.26138 4224 ft 203 kts 151°
2026-04-12 12:11 -30.16123 153.26854 3938 ft 183 kts 172°
2026-04-12 12:11 -30.17286 153.26629 3733 ft 168 kts 204°
2026-04-12 12:11 -30.18317 153.26014 3526 ft 166 kts 212°
2026-04-12 12:12 -30.19265 153.25269 3316 ft 164 kts 217°
2026-04-12 12:12 -30.20154 153.24445 3101 ft 163 kts 220°
2026-04-12 12:12 -30.21010 153.23582 2897 ft 163 kts 221°
2026-04-12 12:12 -30.21828 153.22744 2696 ft 152 kts 221°
2026-04-12 12:13 -30.22610 153.21942 2502 ft 149 kts 221°
2026-04-12 12:13 -30.23362 153.21168 2319 ft 138 kts 222°
2026-04-12 12:13 -30.24032 153.20490 2171 ft 118 kts 221°
2026-04-12 12:13 -30.24629 153.19898 2119 ft 110 kts 220°
2026-04-12 12:14 -30.25218 153.19319 1942 ft 110 kts 221°
2026-04-12 12:14 -30.25797 153.18743 1788 ft 110 kts 221°
2026-04-12 12:14 -30.26380 153.18165 1625 ft 110 kts 221°
2026-04-12 12:14 -30.26961 153.17586 1452 ft 111 kts 222°
2026-04-12 12:15 -30.27542 153.17004 1278 ft 110 kts 222°
2026-04-12 12:15 -30.28118 153.16425 1118 ft 109 kts 221°
2026-04-12 12:15 -30.28693 153.15845 969 ft 110 kts 222°
2026-04-12 12:15 -30.29257 153.15279 806 ft 107 kts 222°
2026-04-12 12:16 -30.29829 153.14712 659 ft 107 kts 223°
2026-04-12 12:16 -30.30384 153.14155 518 ft 107 kts 223°
2026-04-12 12:16 -30.30955 153.13579 385 ft 106 kts 223°
2026-04-12 12:16 -30.31473 153.13017 301 ft 103 kts 224°
2026-04-12 12:17 -30.32014 153.12472 182 ft 104 kts 221°
2026-04-12 12:17 -30.32576 153.11926 64 ft 104 kts 221°
2026-04-12 12:17 -30.33094 153.11395 35 ft 92 kts 224°
2026-04-12 12:17 -30.33359 153.11129 24 ft 12 kts 220°
2026-04-12 12:18 -30.33393 153.11074 22 ft 8 kts 234°
2026-04-12 12:18 -30.33434 153.11077 22 ft 5 kts 89°
2026-04-12 12:18 -30.33410 153.11094 22 ft 0 kts 22°
2026-04-12 12:18 -30.33395 153.11101 23 ft 5 kts 22°
2026-04-12 12:19 -30.33358 153.11130 24 ft 8 kts 37°
2026-04-12 12:19 -30.33303 153.11137 24 ft 9 kts 334°
2026-04-12 12:19 -30.33261 153.11086 23 ft 9 kts 310°
2026-04-12 12:19 -30.33210 153.11050 24 ft 9 kts 358°
2026-04-12 12:20 -30.33155 153.11091 22 ft 11 kts 41°
2026-04-12 12:20 -30.33095 153.11151 22 ft 12 kts 40°
2026-04-12 12:20 -30.33029 153.11216 23 ft 13 kts 40°
2026-04-12 12:20 -30.32960 153.11283 24 ft 13 kts 40°
2026-04-12 12:21 -30.32890 153.11352 25 ft 13 kts 41°
2026-04-12 12:21 -30.32821 153.11421 22 ft 13 kts 41°
2026-04-12 12:21 -30.32751 153.11491 23 ft 13 kts 41°
2026-04-12 12:21 -30.32683 153.11559 24 ft 13 kts 40°
2026-04-12 12:22 -30.32613 153.11628 24 ft 13 kts 40°
2026-04-12 12:22 -30.32544 153.11696 25 ft 13 kts 42°
2026-04-12 12:22 -30.32473 153.11765 23 ft 13 kts 31°
2026-04-12 12:22 -30.32410 153.11747 26 ft 10 kts 310°
2026-04-12 12:23 -30.32371 153.11697 23 ft 5 kts 313°
2026-04-12 12:23 -30.32340 153.11683 23 ft 6 kts 13°
2026-04-12 12:23 -30.32300 153.11689 23 ft 4 kts 342°
2026-04-12 12:23 -30.32270 153.11676 25 ft 2 kts 340°
2026-04-12 12:24 -30.32267 153.11675 25 ft 0 kts 340°